Location: Alexandria
(38.8050°N, 77.0470°W)
Time: 22:41:41

Envisat - Pass Details

Date: 12 March 2018
Orbit: 764 x 766 km, 98.2° (Epoch: 23 March)

Event Time Altitude Azimuth Distance (km) Brightness Sun altitude
Rises 19:47:34 0° 140° (SE) 3,219 5.8 -7.7°
Reaches altitude 10° 19:50:04 10° 130° (SE) 2,297 5.0 -8.2°
Maximum altitude 19:54:30 32° 69° (ENE) 1,301 3.7 -9.0°
Drops below altitude 10° 19:58:57 10° 8° (N) 2,309 5.5 -9.9°
Sets 20:01:28 0° 358° (N) 3,239 6.3 -10.4°
